Weather History for KRAP - April, 2013

Change the Weather History Date:

Wednesday, April 10, 2013

  Actual Average Record
Temperature  
Mean Temperature 21 °F 43 °F  
Max Temperature 25 °F 56 °F 87 °F (1996)
Min Temperature 16 °F 30 °F 12 °F (1997)
Degree Days  
Heating Degree Days 44 22  
Month to date heating degree days 270 232  
Since 1 July heating degree days 6226 6360  
Cooling Degree Days 0 0  
Month to date cooling degree days 0 0  
Year to date cooling degree days 0 0  
Moisture  
Dew Point 16 °F    
Average Humidity 80    
Maximum Humidity 92    
Minimum Humidity 68    
Precipitation  
Precipitation 0.25 in 0.04 in 0.90 in (1963)
Month to date precipitation 1.69 0.41  
Year to date precipitation 3.12 2.08  
Snow  
Snow 5.70 in 0.30 in 5.70 in (2013)
Month to date snowfall 28.2 2.9  
Since 1 July snowfall 61.5 35.0  
Snow Depth 20.00 in    
Sea Level Pressure  
Sea Level Pressure 30.22 in    
Wind  
Wind Speed 16 mph (NNW)    
Max Wind Speed 26 mph    
Max Gust Speed 32 mph    
Visibility 4 miles    
Events Fog , Snow    
T = Trace of Precipitation, MM = Missing Value Source: NWS Daily Summary

Daily Weather History Graph

Daily Weather History Graph

Search for Another Location

Airport or City:

Trip Planner

Search our weather history database for the weather conditions in past years. The results will help you decide how hot, cold, wet, or windy it might be!

Date:

Astronomy

Apr. 10, 2013 Rise Set
Actual Time 6:17 AM MDT 7:30 PM MDT
Civil Twilight 5:47 AM MDT 8:00 PM MDT
Nautical Twilight 5:11 AM MDT 8:36 PM MDT
Astronomical Twilight 4:34 AM MDT 9:14 PM MDT
Moon 6:13 AM MDT (4/10) 8:10 PM MDT (4/10)
Length of Visible Light 14h 13m
Length of Day
13h 13m
New Moon, 0% of the Moon is Illuminated
Apr 10
New Moon
Apr 18
First Quarter
Apr 25
Full
May 2
Last Quarter
May 9
New

Hourly Weather History & Observations

Time (MDT) Temp. Windchill Dew Point Humidity Pressure Visibility Wind Dir Wind Speed Gust Speed Precip Events Conditions
12:06 AM 17.6 °F -0.3 °F 12.2 °F 79% 30.21 in 1.0 mi NNW 24.2 mph - 0.01 in Snow Light Snow
12:27 AM 17.6 °F -0.3 °F 14.0 °F 86% 30.21 in 0.8 mi NNW 24.2 mph - 0.02 in Snow Light Snow
12:36 AM 17.6 °F -0.3 °F 14.0 °F 86% 30.21 in 1.2 mi NNW 24.2 mph 29.9 mph 0.02 in Snow Light Snow
12:52 AM 17.1 °F -0.3 °F 14.0 °F 88% 30.40 in 1.8 mi NNW 21.9 mph - 0.02 in Snow Light Snow
1:01 AM 17.6 °F 1.7 °F 14.0 °F 86% 30.23 in 2.5 mi NNW 18.4 mph - 0.00 in Snow Light Snow
1:10 AM 17.6 °F 0.9 °F 14.0 °F 86% 30.23 in 1.8 mi NNW 20.7 mph - 0.00 in Snow Light Snow
1:40 AM 17.6 °F 2.2 °F 14.0 °F 86% 30.23 in 1.0 mi NNW 17.3 mph - 0.02 in Snow Light Snow
1:52 AM 18.0 °F 2.6 °F 15.1 °F 88% 30.40 in 1.0 mi NNW 17.3 mph - 0.03 in Snow Light Snow
2:36 AM 17.6 °F 1.7 °F 15.8 °F 93% 30.19 in 1.5 mi NNW 18.4 mph - 0.02 in Snow Light Snow
2:45 AM 17.6 °F 1.7 °F 15.8 °F 93% 30.19 in 2.5 mi NNW 18.4 mph - 0.02 in Snow Light Snow
2:52 AM 18.0 °F 1.7 °F 15.1 °F 88% 30.36 in 4.0 mi NNW 19.6 mph - 0.02 in Snow Light Snow
3:52 AM 19.0 °F 4.0 °F 15.1 °F 85% 30.35 in 10.0 mi NNW 17.3 mph - 0.00 in Snow Light Snow
4:35 AM 19.4 °F 4.1 °F 15.8 °F 86% 30.18 in 2.5 mi NNW 18.4 mph - 0.00 in Snow Light Snow
4:48 AM 19.4 °F 2.5 °F 15.8 °F 86% 30.17 in 1.5 mi NNW 23.0 mph - 0.01 in Snow Light Snow
4:52 AM 19.0 °F 2.0 °F 15.1 °F 85% 30.34 in 1.2 mi NNW 23.0 mph - 0.01 in Snow Light Snow
5:12 AM 19.4 °F 2.8 °F 15.8 °F 86% 30.17 in 1.0 mi NNW 21.9 mph - 0.00 in Snow Light Snow
5:19 AM 19.4 °F 3.2 °F 15.8 °F 86% 30.18 in 0.8 mi NNW 20.7 mph 32.2 mph 0.01 in Snow Light Snow
5:38 AM 19.4 °F 2.8 °F 15.8 °F 86% 30.19 in 1.2 mi NNW 21.9 mph - 0.01 in Snow Light Snow
5:49 AM 19.4 °F 3.6 °F 15.8 °F 86% 30.19 in 0.8 mi NNW 19.6 mph - 0.02 in Snow Light Snow
5:52 AM 19.0 °F 3.6 °F 15.1 °F 85% 30.35 in 0.8 mi NNW 18.4 mph - 0.02 in Snow Light Snow
6:05 AM 19.4 °F 5.0 °F 15.8 °F 86% 30.19 in 0.8 mi NNW 16.1 mph - 0.01 in Snow Light Snow
6:52 AM 19.0 °F 3.6 °F 16.0 °F 88% 30.35 in 0.5 mi NNW 18.4 mph - 0.05 in Fog , Snow Snow
7:24 AM 19.4 °F 4.1 °F 15.8 °F 86% 30.19 in 0.2 mi NNW 18.4 mph - 0.02 in Fog , Snow Heavy Snow
7:40 AM 19.4 °F 2.8 °F 15.8 °F 86% 30.18 in 0.5 mi NNW 21.9 mph - 0.02 in Fog , Snow Snow
7:52 AM 19.9 °F 3.2 °F 17.1 °F 89% 30.34 in 0.5 mi NNW 23.0 mph - 0.03 in Fog , Snow Snow
8:18 AM 19.4 °F 2.5 °F 17.6 °F 93% 30.18 in 0.8 mi North 23.0 mph - 0.01 in Snow Light Snow
8:30 AM 19.4 °F 2.1 °F 17.6 °F 93% 30.18 in 0.8 mi North 24.2 mph - 0.01 in Snow Light Snow
8:52 AM 19.9 °F 3.5 °F 16.0 °F 85% 30.35 in 0.8 mi North 21.9 mph 27.6 mph 0.01 in Snow Light Snow
9:11 AM 19.4 °F 4.1 °F 15.8 °F 86% 30.18 in 1.0 mi North 18.4 mph - 0.00 in Snow Light Snow
9:35 AM 21.2 °F 6.8 °F 17.6 °F 86% 30.17 in 1.2 mi North 17.3 mph - 0.01 in Snow Light Snow
9:52 AM 21.0 °F 5.7 °F 16.0 °F 81% 30.34 in 1.8 mi North 19.6 mph - 0.01 in Snow Light Snow
10:11 AM 21.2 °F 6.0 °F 17.6 °F 86% 30.18 in 1.2 mi North 19.6 mph - 0.00 in Snow Light Snow
10:39 AM 21.2 °F 5.6 °F 17.6 °F 86% 30.18 in 1.8 mi North 20.7 mph - 0.00 in Snow Light Snow
10:52 AM 21.0 °F 5.7 °F 17.1 °F 85% 30.33 in 1.2 mi North 19.6 mph - 0.00 in Snow Light Snow
11:21 AM 21.2 °F 5.6 °F 17.6 °F 86% 30.17 in 1.5 mi North 20.7 mph - 0.00 in Snow Light Snow
11:40 AM 21.2 °F 6.0 °F 17.6 °F 86% 30.16 in 2.0 mi NNW 19.6 mph - 0.00 in Snow Light Snow
11:49 AM 23.0 °F 8.0 °F 17.6 °F 80% 30.16 in 1.8 mi North 20.7 mph - 0.00 in Snow Light Snow
11:52 AM 23.0 °F 8.3 °F 17.1 °F 78% 30.31 in 2.0 mi North 19.6 mph - 0.00 in Snow Light Snow
12:11 PM 23.0 °F 8.7 °F 17.6 °F 80% 30.15 in 3.0 mi North 18.4 mph - 0.00 in Snow Light Snow
12:14 PM 23.0 °F 8.7 °F 17.6 °F 80% 30.15 in 2.5 mi North 18.4 mph - 0.00 in Snow Light Snow
12:27 PM 23.0 °F 8.7 °F 17.6 °F 80% 30.14 in 4.0 mi North 18.4 mph - 0.00 in Snow Light Snow
12:52 PM 24.1 °F 10.6 °F 18.0 °F 77% 30.29 in 4.0 mi North 17.3 mph - 0.00 in Snow Light Snow
1:05 PM 24.8 °F 11.1 °F 19.4 °F 80% 30.13 in 5.0 mi North 18.4 mph - 0.00 in Snow Light Snow
1:17 PM 24.8 °F 11.9 °F 19.4 °F 80% 30.13 in 6.0 mi North 16.1 mph - 0.00 in Snow Light Snow
1:52 PM 24.1 °F 10.6 °F 18.0 °F 77% 30.27 in 7.0 mi North 17.3 mph - 0.00 in Snow Light Snow
2:52 PM 25.0 °F 11.7 °F 19.0 °F 78% 30.23 in 10.0 mi North 17.3 mph - 0.00 in   Overcast
3:52 PM 25.0 °F 11.3 °F 19.0 °F 78% 30.21 in 5.0 mi North 18.4 mph - 0.00 in Snow Light Snow
4:52 PM 25.0 °F 11.7 °F 18.0 °F 75% 30.18 in 9.0 mi North 17.3 mph - 0.00 in Snow Light Snow
5:52 PM 24.1 °F 12.0 °F 16.0 °F 71% 30.15 in 10.0 mi North 13.8 mph - 0.00 in   Overcast
6:52 PM 23.0 °F 10.6 °F 16.0 °F 74% 30.15 in 10.0 mi NNW 13.8 mph - N/A   Mostly Cloudy
7:52 PM 21.9 °F 11.7 °F 15.1 °F 75% 30.13 in 10.0 mi NNW 9.2 mph - N/A   Overcast
8:52 PM 21.9 °F 11.7 °F 15.1 °F 75% 30.13 in 10.0 mi NNW 9.2 mph - N/A   Overcast
9:52 PM 18.0 °F 6.9 °F 10.9 °F 74% 30.12 in 10.0 mi NW 9.2 mph - N/A   Overcast
10:52 PM 19.9 °F 12.1 °F 12.9 °F 74% 30.09 in 10.0 mi WNW 5.8 mph - N/A   Overcast
11:52 PM 21.0 °F 13.4 °F 15.1 °F 78% 30.05 in 10.0 mi WNW 5.8 mph - N/A   Overcast